Location: Erlenbrunn
(49.1717°N, 7.6142°E)
Time: 04:51:13
(UTC+00:00)

Cosmos 2298 Rocket - Pass Details

Date: 25 November 2020
Orbit: 775 x 784 km, 74.0° (Epoch: 24 January)

Event Time Altitude Azimuth Distance (km) Brightness Sun altitude
Rises 16:15:34 0° 336° (NNW) 3,269 7.3 -6.3°
Reaches altitude 10° 16:17:58 10° 337° (NNW) 2,338 6.5 -6.6°
Maximum altitude 16:23:18 87° 67° (ENE) 787 4.1 -7.4°
Drops below altitude 10° 16:28:36 10° 157° (SSE) 2,328 6.5 -8.2°
Sets 16:30:59 0° 158° (SSE) 3,253 7.3 -8.6°
